^^
TXWeather Station Historical Data
 
Daily Summary for January 25, 2022 Units:  English    Metric   Both
Daily Weekly Monthly Yearly Custom
  Current: High: Low: Average:
Temperature: 55.6 °F 55.6 °F 46.2 °F 48.4 °F
Dew Point: 51.1 °F 52.0 °F 43.7 °F 46.1 °F
Humidity: 85% 92% 85% 91%
Wind Speed: 12mph 18mph 0mph 5mph
Wind Gust: 14mph 18mph - -
WindNNE - - SW
Pressure: 30.1 in 30.1 in 29.9 in -
Precipitation: 0.010 in      
Historical Graphs
 
 
Tabular Data for January 25, 2022
Time Temperature Dew Point Pressure Wind Wind Speed Wind Gust Humidity Rainfall Rate (Hourly) solar
00:04 47.1 °F 44.6 °F 29.9 in NNE 5 mph 5 mph 91% 0.000 in 0.00 W/m2
00:09 47.1 °F 44.6 °F 29.9 in NNE 4 mph 4 mph 91% 0.000 in 0.00 W/m2
00:14 47.1 °F 44.6 °F 29.9 in NE 4 mph 5 mph 91% 0.000 in 0.00 W/m2
00:19 47.1 °F 44.6 °F 29.9 in NNE 3 mph 4 mph 91% 0.000 in 0.00 W/m2
00:24 47.1 °F 44.6 °F 29.9 in NNE 4 mph 4 mph 91% 0.000 in 0.00 W/m2
00:29 47.1 °F 44.6 °F 29.9 in NNE 2 mph 4 mph 91% 0.000 in 0.00 W/m2
00:34 47.1 °F 44.6 °F 29.9 in NNE 2 mph 3 mph 91% 0.000 in 0.00 W/m2
00:39 46.9 °F 44.4 °F 29.9 in NNE 3 mph 3 mph 91% 0.000 in 0.00 W/m2
00:44 46.9 °F 44.4 °F 29.9 in NE 2 mph 2 mph 91% 0.000 in 0.00 W/m2
00:49 46.8 °F 44.2 °F 29.9 in NE 2 mph 3 mph 91% 0.000 in 0.00 W/m2
00:54 46.8 °F 44.2 °F 29.9 in NE 2 mph 2 mph 91% 0.000 in 0.00 W/m2
00:59 46.6 °F 44.1 °F 29.9 in NE 2 mph 2 mph 91% 0.000 in 0.00 W/m2
01:04 46.6 °F 44.1 °F 29.9 in NE 2 mph 2 mph 91% 0.000 in 0.00 W/m2
01:09 46.6 °F 44.1 °F 29.9 in NE 1 mph 2 mph 91% 0.000 in 0.00 W/m2
01:14 46.4 °F 43.9 °F 29.9 in Calm     91% 0.000 in 0.00 W/m2
01:19 46.4 °F 43.9 °F 29.9 in NE 1 mph 1 mph 91% 0.000 in 0.00 W/m2
01:24 46.2 °F 43.7 °F 29.9 in NE 1 mph 2 mph 91% 0.000 in 0.00 W/m2
01:29 46.2 °F 43.7 °F 29.9 in NE 2 mph 2 mph 91% 0.000 in 0.00 W/m2
01:34 46.2 °F 43.7 °F 29.9 in NE 2 mph 3 mph 91% 0.010 in 0.00 W/m2
01:39 46.4 °F 43.9 °F 29.9 in NE 2 mph 2 mph 91% 0.010 in 0.00 W/m2
01:44 46.4 °F 43.9 °F 30.0 in NE 1 mph 2 mph 91% 0.010 in 0.00 W/m2
01:49 46.6 °F 44.1 °F 29.9 in NE 1 mph 1 mph 91% 0.010 in 0.00 W/m2
01:54 46.6 °F 44.1 °F 30.0 in Calm     91% 0.010 in 0.00 W/m2
01:59 46.6 °F 44.1 °F 30.0 in NE 3 mph 3 mph 91% 0.010 in 0.00 W/m2
02:04 46.8 °F 44.2 °F 30.0 in NW 4 mph 4 mph 91% 0.010 in 0.00 W/m2
02:09 46.8 °F 44.2 °F 30.0 in NNW 3 mph 3 mph 91% 0.010 in 0.00 W/m2
02:14 46.9 °F 44.4 °F 30.0 in North 3 mph 3 mph 91% 0.010 in 0.00 W/m2
02:19 46.9 °F 44.4 °F 30.0 in North 3 mph 3 mph 91% 0.010 in 0.00 W/m2
02:24 46.9 °F 44.4 °F 30.0 in North 1 mph 1 mph 91% 0.010 in 0.00 W/m2
02:29 46.9 °F 44.4 °F 30.0 in North 2 mph 2 mph 91% 0.010 in 0.00 W/m2
02:34 46.9 °F 44.4 °F 30.0 in Calm   1 mph 91% 0.010 in 0.00 W/m2
02:39 46.9 °F 44.4 °F 30.0 in North 2 mph 2 mph 91% 0.000 in 0.00 W/m2
02:44 46.9 °F 44.4 °F 30.0 in North 3 mph 3 mph 91% 0.000 in 0.00 W/m2
02:49 46.9 °F 44.8 °F 30.0 in North 1 mph 3 mph 92% 0.000 in 0.00 W/m2
02:54 47.1 °F 44.6 °F 30.0 in North 2 mph 2 mph 91% 0.000 in 0.00 W/m2
02:59 47.1 °F 44.6 °F 30.0 in North 2 mph 2 mph 91% 0.000 in 0.00 W/m2
03:04 47.1 °F 44.6 °F 30.0 in North 2 mph 2 mph 91% 0.000 in 0.00 W/m2
03:09 47.1 °F 45.0 °F 30.0 in North 1 mph 2 mph 92% 0.000 in 0.00 W/m2
03:14 47.1 °F 45.0 °F 30.0 in North 2 mph 2 mph 92% 0.000 in 0.00 W/m2
03:19 47.1 °F 44.6 °F 30.0 in NNW 3 mph 3 mph 91% 0.000 in 0.00 W/m2
03:24 47.3 °F 44.8 °F 30.0 in NNW 3 mph 4 mph 91% 0.000 in 0.00 W/m2
03:29 47.3 °F 44.8 °F 30.0 in NW 3 mph 3 mph 91% 0.000 in 0.00 W/m2
03:34 47.3 °F 44.8 °F 30.0 in North 5 mph 5 mph 91% 0.000 in 0.00 W/m2
03:39 47.3 °F 44.8 °F 30.0 in NNW 4 mph 5 mph 91% 0.000 in 0.00 W/m2
03:44 47.3 °F 44.8 °F 30.0 in North 4 mph 5 mph 91% 0.000 in 0.00 W/m2
03:49 47.5 °F 45.0 °F 30.0 in North 6 mph 6 mph 91% 0.000 in 0.00 W/m2
03:54 47.5 °F 45.0 °F 30.0 in North 6 mph 6 mph 91% 0.000 in 0.00 W/m2
03:59 47.5 °F 45.0 °F 30.0 in North 4 mph 4 mph 91% 0.000 in 0.00 W/m2
04:04 47.5 °F 45.0 °F 30.0 in North 4 mph 4 mph 91% 0.000 in 0.00 W/m2
04:09 47.5 °F 45.0 °F 30.0 in North 5 mph 5 mph 91% 0.000 in 0.00 W/m2
04:14 47.5 °F 45.3 °F 30.0 in North 5 mph 5 mph 92% 0.000 in 0.00 W/m2
04:19 47.5 °F 45.0 °F 30.0 in NNW 6 mph 6 mph 91% 0.000 in 0.00 W/m2
04:24 47.5 °F 45.3 °F 30.0 in North 5 mph 5 mph 92% 0.000 in 0.00 W/m2
04:29 47.7 °F 45.5 °F 30.0 in North 4 mph 4 mph 92% 0.000 in 0.00 W/m2
04:34 47.7 °F 45.5 °F 30.0 in North 5 mph 5 mph 92% 0.000 in 0.00 W/m2
04:39 47.7 °F 45.5 °F 30.0 in North 4 mph 5 mph 92% 0.000 in 0.00 W/m2
04:44 47.7 °F 45.5 °F 30.0 in NNW 5 mph 8 mph 92% 0.000 in 0.00 W/m2
04:49 47.7 °F 45.5 °F 30.0 in NNW 5 mph 5 mph 92% 0.000 in 0.00 W/m2
04:54 47.7 °F 45.5 °F 30.0 in North 4 mph 4 mph 92% 0.000 in 0.00 W/m2
04:59 47.7 °F 45.5 °F 30.0 in North 5 mph 5 mph 92% 0.000 in 0.00 W/m2
05:04 47.8 °F 45.7 °F 30.0 in NNE 3 mph 3 mph 92% 0.000 in 0.00 W/m2
05:09 47.8 °F 45.7 °F 30.0 in NNE 1 mph 2 mph 92% 0.000 in 0.00 W/m2
05:14 47.8 °F 45.7 °F 30.0 in North 3 mph 3 mph 92% 0.000 in 0.00 W/m2
05:19 47.8 °F 45.7 °F 30.0 in NNW 3 mph 3 mph 92% 0.000 in 0.00 W/m2
05:24 47.8 °F 45.7 °F 30.0 in NW 2 mph 2 mph 92% 0.000 in 0.00 W/m2
05:29 47.8 °F 45.7 °F 30.0 in NW 3 mph 3 mph 92% 0.000 in 0.00 W/m2
05:34 47.8 °F 45.7 °F 30.0 in NW 3 mph 4 mph 92% 0.000 in 0.00 W/m2
05:39 48.0 °F 45.9 °F 30.0 in NW 3 mph 3 mph 92% 0.000 in 0.00 W/m2
05:44 48.0 °F 45.9 °F 30.0 in NNW 1 mph 3 mph 92% 0.000 in 0.00 W/m2
05:49 48.0 °F 45.9 °F 30.0 in NNW 1 mph 1 mph 92% 0.000 in 0.00 W/m2
05:54 48.0 °F 45.9 °F 30.0 in WSW 2 mph 2 mph 92% 0.000 in 0.00 W/m2
05:59 48.0 °F 45.9 °F 30.0 in WSW 3 mph 3 mph 92% 0.000 in 0.00 W/m2
06:04 48.0 °F 45.9 °F 30.0 in WNW 2 mph 3 mph 92% 0.000 in 0.00 W/m2
06:09 48.0 °F 45.9 °F 30.0 in West 2 mph 3 mph 92% 0.000 in 0.00 W/m2
06:14 48.0 °F 45.9 °F 30.0 in WSW 4 mph 4 mph 92% 0.000 in 0.00 W/m2
06:19 48.0 °F 45.9 °F 30.0 in WSW 3 mph 4 mph 92% 0.000 in 0.00 W/m2
06:24 48.0 °F 45.9 °F 30.0 in WSW 3 mph 3 mph 92% 0.000 in 0.00 W/m2
06:29 48.0 °F 45.9 °F 30.0 in West 2 mph 3 mph 92% 0.000 in 0.00 W/m2
06:34 48.0 °F 45.5 °F 30.0 in NW 3 mph 3 mph 91% 0.000 in 0.00 W/m2
06:39 48.0 °F 45.5 °F 30.0 in WNW 2 mph 4 mph 91% 0.000 in 0.00 W/m2
06:44 47.8 °F 45.7 °F 30.0 in NW 4 mph 4 mph 92% 0.000 in 0.00 W/m2
06:49 47.8 °F 45.7 °F 30.0 in WNW 4 mph 4 mph 92% 0.000 in 0.00 W/m2
06:54 47.8 °F 45.7 °F 30.0 in NW 7 mph 7 mph 92% 0.000 in 0.00 W/m2
06:59 47.8 °F 45.7 °F 30.0 in NW 6 mph 8 mph 92% 0.000 in 0.00 W/m2
07:04 47.7 °F 45.5 °F 30.0 in NW 7 mph 8 mph 92% 0.000 in 0.00 W/m2
07:09 47.8 °F 45.7 °F 30.0 in NW 6 mph 7 mph 92% 0.000 in 0.00 W/m2
07:14 47.8 °F 45.7 °F 30.0 in NW 7 mph 8 mph 92% 0.000 in 0.00 W/m2
07:19 47.8 °F 45.7 °F 30.0 in NW 7 mph 8 mph 92% 0.000 in 0.00 W/m2
07:24 47.8 °F 45.7 °F 30.0 in WNW 9 mph 10 mph 92% 0.000 in 0.00 W/m2
07:29 47.8 °F 45.7 °F 30.1 in WNW 7 mph 8 mph 92% 0.000 in 5.00 W/m2
07:34 47.8 °F 45.7 °F 30.1 in NW 6 mph 8 mph 92% 0.000 in 7.00 W/m2
07:39 47.8 °F 45.7 °F 30.1 in NW 6 mph 8 mph 92% 0.000 in 9.00 W/m2
07:44 47.8 °F 45.7 °F 30.1 in WNW 4 mph 5 mph 92% 0.000 in 16.00 W/m2
07:49 47.8 °F 45.7 °F 30.1 in NW 5 mph 6 mph 92% 0.000 in 21.00 W/m2
07:54 48.0 °F 45.9 °F 30.1 in NW 5 mph 6 mph 92% 0.000 in 35.00 W/m2
07:59 48.0 °F 45.9 °F 30.1 in NW 5 mph 7 mph 92% 0.000 in 44.00 W/m2
08:04 48.2 °F 46.0 °F 30.1 in NW 5 mph 6 mph 92% 0.000 in 47.00 W/m2
08:09 48.4 °F 46.2 °F 30.1 in NW 7 mph 9 mph 92% 0.000 in 63.00 W/m2
08:14 48.6 °F 46.4 °F 30.1 in NW 7 mph 10 mph 92% 0.000 in 63.00 W/m2
08:19 48.6 °F 46.4 °F 30.1 in NNW 7 mph 7 mph 92% 0.000 in 74.00 W/m2
08:24 48.7 °F 46.6 °F 30.1 in NW 6 mph 9 mph 92% 0.000 in 90.00 W/m2
08:29 48.9 °F 46.8 °F 30.1 in NNW 8 mph 8 mph 92% 0.000 in 120.00 W/m2
08:34 49.3 °F 47.1 °F 30.1 in NNW 5 mph 8 mph 92% 0.000 in 144.00 W/m2
08:39 49.5 °F 47.3 °F 30.1 in NW 8 mph 8 mph 92% 0.000 in 107.00 W/m2
08:44 49.6 °F 47.5 °F 30.1 in NW 8 mph 8 mph 92% 0.000 in 109.00 W/m2
08:49 49.8 °F 47.7 °F 30.1 in NNW 9 mph 9 mph 92% 0.000 in 86.00 W/m2
08:54 49.8 °F 47.7 °F 30.1 in NW 7 mph 7 mph 92% 0.000 in 88.00 W/m2
08:59 50.2 °F 48.0 °F 30.1 in NNW 9 mph 10 mph 92% 0.000 in 98.00 W/m2
09:04 50.4 °F 48.2 °F 30.1 in NNW 7 mph 10 mph 92% 0.000 in 123.00 W/m2
09:09 50.4 °F 48.2 °F 30.1 in NNW 8 mph 8 mph 92% 0.000 in 109.00 W/m2
09:14 50.5 °F 48.4 °F 30.1 in North 8 mph 10 mph 92% 0.000 in 134.00 W/m2
09:19 50.7 °F 48.6 °F 30.1 in North 5 mph 9 mph 92% 0.000 in 436.00 W/m2
09:24 51.3 °F 49.1 °F 30.1 in North 6 mph 9 mph 92% 0.000 in 253.00 W/m2
09:29 51.8 °F 49.6 °F 30.1 in North 10 mph 10 mph 92% 0.000 in 355.00 W/m2
09:34 52.3 °F 50.0 °F 30.1 in NNW 10 mph 12 mph 92% 0.000 in 448.00 W/m2
09:39 52.3 °F 50.0 °F 30.1 in North 13 mph 16 mph 92% 0.000 in 193.00 W/m2
09:44 52.5 °F 50.2 °F 30.1 in North 13 mph 16 mph 92% 0.000 in 200.00 W/m2
09:49 52.7 °F 50.4 °F 30.1 in NNE 13 mph 13 mph 92% 0.000 in 188.00 W/m2
09:54 53.1 °F 50.7 °F 30.1 in North 11 mph 11 mph 92% 0.000 in 213.00 W/m2
09:59 53.2 °F 50.7 °F 30.1 in North 14 mph 15 mph 91% 0.000 in 260.00 W/m2
10:04 53.4 °F 50.9 °F 30.1 in North 11 mph 11 mph 91% 0.000 in 292.00 W/m2
10:09 53.8 °F 51.3 °F 30.1 in NNE 15 mph 15 mph 91% 0.000 in 315.00 W/m2
10:14 54.3 °F 51.4 °F 30.1 in North 16 mph 16 mph 90% 0.000 in 302.00 W/m2
10:19 54.9 °F 52.0 °F 30.1 in North 12 mph 12 mph 90% 0.000 in 281.00 W/m2
10:24 55.0 °F 51.8 °F 30.1 in North 12 mph 13 mph 89% 0.000 in 264.00 W/m2
10:29 55.0 °F 51.6 °F 30.1 in NNE 18 mph 18 mph 88% 0.000 in 251.00 W/m2
10:34 55.2 °F 51.4 °F 30.1 in NNE 8 mph 13 mph 87% 0.000 in 279.00 W/m2
10:39 55.6 °F 51.8 °F 30.1 in North 12 mph 14 mph 87% 0.000 in 304.00 W/m2
10:44 55.6 °F 51.1 °F 30.1 in NNE 12 mph 14 mph 85% 0.000 in 223.00 W/m2
Villages of Bridgestone, Spring, TX USA
Compliments of Weather Underground - 4 mb